Location: Fours
(44.3167°N, 6.7000°E)
Time: 09:16:32
(UTC+00:00)

MOS 1 Rocket - Pass Details

Date: 30 November 2020
Orbit: 613 x 831 km, 97.4° (Epoch: 25 January)

Event Time Altitude Azimuth Distance (km) Brightness Sun altitude
Exits shadow 18:03:10 34° 30° (NNE) 1,356 4.4 -22.2°
Maximum altitude 18:05:33 64° 100° (E) 913 3.6 -22.6°
Drops below altitude 10° 18:10:51 10° 182° (S) 2,393 6.2 -23.6°
Sets 18:13:11 0° 185° (S) 3,298 6.9 -24.0°
